DELTA 1 DEB

Satellite information

Favourite Embed

Satellite Type and Status

DEBRISIN ORBIT

Key statistics

Satellite DELTA 1 DEB at a glance.

Uptime

18035

Days in orbit

Revolutions

≈ 12.6

Per day

Orbit

SSO

Sun Synchronous Orbit

Inclination

101.6

Latest

Satellite identification and parameters

Extended collection of information and parameters for DELTA 1 DEB.

Object identification

Identified? True

Debris? True

Object name: DELTA 1 DEB

International designator: 1976-077GG

Object number (NORAD): 40763

Object ID (CCSDS): 40763

Country: UNITED STATES OF AMERICA (US)

Current information (Y/N): Y

RCS size: SMALL

Orbital parameters

Period: 114.369 minutes

Inclination: 101.5521 deg

SMA: 7804.85 km

Apoapsis: 1447.114 km

Periapsis: 1406.315 km

RAAN: 323.1588 deg

Eccentricy: 0.00261365

Argument of periapsis: 210.0144 deg

Mean anomaly: 149.9435 deg

Mean motion: 12.59087629 rev/day

Mean motion (dot): 0.00000545 rev/day2

B* drag term: 0.0034359291 1/REarth

Two-line elements (TLE)

Creation date: Dec. 12, 2025, 10:14 a.m.

Reference frame: TEME

Reference center: EARTH

Epoch: Dec. 12, 2025, 4:10 a.m. UTC

TLE line 0: 0 DELTA 1 DEB

TLE line 1: 1 40763U 76077GG 25346.17418623 .00000545 00000-0 34359-2 0 9999

TLE line 2: 2 40763 101.5521 323.1588 0026137 210.0144 149.9435 12.59087629 68589

Live tracking on map

Real-time ground track for satellite DELTA 1 DEB.

In-orbit conjunctions

A list of the most updated potential collisions computed for object DELTA 1 DEB.

Target Orbit TCA Probability of collision Miss distance Type
COSMOS 2168 LEO 2025-08-28 23:13:23 0.001881927 148.0 (m) PAYLOAD
SL-14 R/B LEO 2024-08-13 18:35:52 0.0001039699 123.0 (m) ROCKET BODY
COSMOS 2041 LEO 2024-07-13 14:34:02 0.0002003741 343.0 (m) PAYLOAD

Associated space launch

Meteorological satellite using radiometric imaging

DELTA 1 DEB was lifted into orbit during the mission ‘Delta 2310 | NOAA 5’, on board a Delta 2310 space rocket.

The launch took place on July 29, 1976, 5:07 p.m. from Space Launch Complex 2W.

For more information about the launch, click the button.

Launch to space Delta 2310 | NOAA 5
Delta 2310 | NOAA 5

Agency: N/A

Status: Launch Successful

Launch date: July 29, 1976, 5:07 p.m. UTC

Rocket: Delta 2310

Launch pad: Space Launch Complex 2W

Location: Vandenberg SFB, CA, USA

...

Latest news about this satellite

There are no fresh news available about this satellite. Check back as we update our databases every day.


Newsletter sign-up

Weekly statistics, charts and insights to help you stay on top of the space industry.